Location: Cowley
(49.5667°N, 114.0667°W)
Time: 14:28:34
(UTC+00:00)

N. Korean satellite - Pass Details

Date: 03 December 2021
Orbit: 446 x 491 km, 97.3° (Epoch: 18 January)

Event Time Altitude Azimuth Distance (km) Brightness Sun altitude
Rises 13:02:16 0° 12° (NNE) 2,475 10.2 -20.5°
Reaches altitude 10° 13:04:19 10° 12° (NNE) 1,593 9.2 -20.2°
Maximum altitude 13:07:43 87° 287° (WNW) 456 6.2 -19.6°
Drops below altitude 10° 13:11:05 10° 195° (SSW) 1,571 9.1 -19.1°
Sets 13:13:06 0° 195° (SSW) 2,437 10.1 -18.8°
